Valcartier, Quebec

3:40 PM EST on December 03, 2016 (GMT -0500)
Valcartier

Weather History for CYOY - October, 2012

Change the Weather History Date:

Monday, October 29, 2012

  Actual Average Record
Temperature  
Mean Temperature 53 °F -  
Max Temperature 60 °F 42 °F 60 °F (2012)
Min Temperature 46 °F 28 °F 19 °F (2004)
Degree Days  
Heating Degree Days 12    
Growing Degree Days 3 (Base 50)    
Moisture  
Dew Point 48 °F    
Average Humidity 75    
Maximum Humidity 93    
Minimum Humidity 63    
Precipitation  
Precipitation 0.00 in - - ()
Sea Level Pressure  
Sea Level Pressure 29.90 in    
Wind  
Wind Speed 10 mph ()    
Max Wind Speed 23 mph    
Max Gust Speed 44 mph    
Visibility 9.0 miles    
Events      
Averages and records for this station are not official NWS values.
T = Trace of Precipitation, MM = Missing Value Source: Averaged Metar Reports

Daily Weather History Graph

Daily Weather History Graph

Search for Another Location

Airport or City:

Trip Planner

Search our weather history database for the weather conditions in past years. The results will help you decide how hot, cold, wet, or windy it might be!

Date:

Astronomy

Oct. 29, 2012 Rise Set
Actual Time 7:24 AM EDT 5:33 PM EDT
Civil Twilight 6:53 AM EDT 6:05 PM EDT
Nautical Twilight 6:17 AM EDT 6:41 PM EDT
Astronomical Twilight 5:42 AM EDT 7:16 PM EDT
Moon 5:21 PM EDT (10/29) 7:13 AM EDT (10/29)
Length of Visible Light 11h 12m
Length of Day
10h 09m
Full, 100% of the Moon is Illuminated
Oct 29
Full
Oct 29
Full
Nov 6
Last Quarter
Nov 13
New
Nov 20
First Quarter

Hourly Weather History & Observations

Time (EDT) Temp. Windchill Dew Point Humidity Pressure Visibility Wind Dir Wind Speed Gust Speed Precip Events Conditions
12:00 AM 48.2 °F - 42.8 °F 82% 30.06 in 9.0 mi East 3.5 mph - N/A   Overcast
1:00 AM 46.4 °F 43.5 °F 42.8 °F 87% 30.04 in 9.0 mi ESE 5.8 mph - N/A   Overcast
2:00 AM 46.4 °F 44.3 °F 42.8 °F 87% 30.03 in 9.0 mi SE 4.6 mph - N/A   Overcast
3:00 AM 46.4 °F 45.2 °F 42.8 °F 87% 30.00 in 9.0 mi SE 3.5 mph - N/A   Overcast
4:00 AM 46.4 °F 44.3 °F 44.6 °F 93% 29.97 in 9.0 mi SSE 4.6 mph - N/A   Overcast
5:00 AM 48.2 °F - 44.6 °F 87% 29.96 in 9.0 mi SSE 3.5 mph - N/A   Overcast
6:00 AM 51.8 °F - 46.4 °F 82% 29.95 in 9.0 mi East 5.8 mph - N/A   Overcast
6:56 AM 53.6 °F - 48.2 °F 82% 29.93 in 9.0 mi East 11.5 mph 19.6 mph N/A   Overcast
7:00 AM 53.6 °F - 48.2 °F 82% 29.94 in 9.0 mi ENE 11.5 mph 19.6 mph N/A   Overcast
7:56 AM 55.4 °F - 48.2 °F 77% 29.95 in 9.0 mi ENE 15.0 mph 23.0 mph N/A   Overcast
8:21 AM 55.4 °F - 48.2 °F 77% 29.95 in 9.0 mi ENE 11.5 mph - N/A   Overcast
8:55 AM 55.4 °F - 48.2 °F 77% 29.94 in 9.0 mi ENE 11.5 mph 18.4 mph N/A   Overcast
9:00 AM 55.4 °F - 48.2 °F 77% 29.96 in 9.0 mi East 11.5 mph 20.7 mph N/A   Overcast
10:00 AM 55.4 °F - 48.2 °F 77% 29.95 in 9.0 mi ENE 13.8 mph 24.2 mph N/A   Overcast
11:00 AM 57.2 °F - 48.2 °F 72% 29.94 in 9.0 mi East 9.2 mph 20.7 mph N/A   Overcast
11:24 AM 57.2 °F - 50.0 °F 77% 29.91 in 9.0 mi ENE 11.5 mph 20.7 mph N/A   Overcast
11:39 AM 59.0 °F - 50.0 °F 72% 29.91 in 9.0 mi ENE 11.5 mph 29.9 mph N/A   Overcast
12:00 PM 59.0 °F - 48.2 °F 67% 29.91 in 9.0 mi East 18.4 mph 29.9 mph N/A   Overcast
1:00 PM 59.0 °F - 48.2 °F 67% 29.91 in 9.0 mi East 16.1 mph 29.9 mph N/A   Mostly Cloudy
1:37 PM 60.8 °F - 48.2 °F 63% 29.88 in 9.0 mi East 13.8 mph 32.2 mph N/A   Mostly Cloudy
2:00 PM 59.0 °F - 48.2 °F 67% 29.90 in 9.0 mi ENE 15.0 mph 29.9 mph N/A   Mostly Cloudy
3:00 PM 60.8 °F - 48.2 °F 63% 29.88 in 9.0 mi East 18.4 mph 31.1 mph N/A   Overcast
4:00 PM 59.0 °F - 48.2 °F 67% 29.88 in 9.0 mi ENE 15.0 mph 27.6 mph N/A   Overcast
5:00 PM 59.0 °F - 50.0 °F 72% 29.87 in 9.0 mi East 11.5 mph 23.0 mph N/A   Overcast
5:45 PM 59.0 °F - 50.0 °F 72% 29.84 in 9.0 mi ENE 21.9 mph 32.2 mph N/A   Overcast
6:00 PM 59.0 °F - 50.0 °F 72% 29.85 in 9.0 mi ENE 10.4 mph 23.0 mph N/A   Overcast
7:00 PM 59.0 °F - 50.0 °F 72% 29.84 in 9.0 mi ENE 19.6 mph 29.9 mph N/A   Overcast
8:00 PM 59.0 °F - 50.0 °F 72% 29.81 in 9.0 mi East 17.3 mph 38.0 mph N/A   Overcast
9:00 PM 59.0 °F - 48.2 °F 67% 29.79 in 9.0 mi East 16.1 mph 36.8 mph N/A   Scattered Clouds
9:53 PM 59.0 °F - 48.2 °F 67% 29.78 in 9.0 mi East 23.0 mph 43.7 mph N/A   Overcast
10:00 PM 59.0 °F - 48.2 °F 67% 29.79 in 9.0 mi ENE 23.0 mph 36.8 mph N/A   Overcast
11:00 PM 57.2 °F - 48.2 °F 72% 29.78 in 9.0 mi ENE 19.6 mph 39.1 mph N/A   Overcast
11:09 PM 57.2 °F - 48.2 °F 72% 29.77 in 9.0 mi ENE 17.3 mph 34.5 mph N/A   Overcast
11:30 PM 57.2 °F - 48.2 °F 72% 29.76 in 9.0 mi East 18.4 mph 32.2 mph N/A   Overcast
11:59 PM 57.2 °F - 48.2 °F 72% 29.75 in 9.0 mi ENE 15.0 mph 35.7 mph N/A   Overcast